[ hide orbit diagram ]
For accurate long-term ephemerides, please instead use our Horizons system.This orbit viewer was implemented using two-body methods, and hence should not be used for determining accurate long-term trajectories (over several years or decades) or planetary encounter circumstances.
Orbital Elements at Epoch 2459000.5 (2020-May-31.0) TDB
Reference: JPL 18 (heliocentric ecliptic J2000)
Element | Value | Uncertainty (1-sigma) | Units |
e | .1620914734831415 | 3.7687e-08 | |
a | 2.648339189299306 | 1.8928e-08 | au |
q | 2.219065987822634 | 9.3515e-08 | au |
i | 13.53774286537221 | 5.3283e-06 | deg |
node | 273.5634568658942 | 2.0983e-05 | deg |
peri | 321.0505021313354 | 2.9161e-05 | deg |
M | 39.89041544490634 | 1.915e-05 | deg |
tp | 2458826.068507754089 (2019-Dec-08.56850775) | 8.3751e-05 | TDB |
period | 1574.196119748518 4.31 | 1.6877e-05 4.621e-08 | d yr |
n | .2286881510402344 | 2.4518e-09 | deg/d |
Q | 3.07761239077598 | 2.1997e-08 | au |
|
| | Orbit Determination Parameters
Additional Information
|
[ show covariance matrix ]
Physical Parameter Table
Parameter |
Symbol |
Value |
Units |
Sigma |
Reference |
Notes |
absolute magnitude |
H |
15.5 |
|
n/a |
MPO385583 |
|
rotation period |
rot_per |
11.2022 |
h |
n/a |
LCDB (Rev. 2020-October); Warner et al., 2009 |
Result based on less than full coverage, so that the period may be wrong by 30 percent or so. Published Reference List: [Pal, A.; Szakats, R.; Kiss, C.; Bodi, A.; et al. (2019) Ap. J. Supl. Ser. 247, id.26.] |
|
134260 (2006 BG12) Discovered 2006-Jan-21 by NEAT at Palomar |
Reference: 20060711/Numbers.arc | Last Updated: 2006-07-17 |
|
|